Weather reports worldwide

Advertisment
Aguilas, Spain (8432): temperature & dewpoint: 27.06.2020 19:00:00 - 03.07.2020 19:00:00 (CEST)Aguilas, Spain (8432): wind speed & gusts: 27.06.2020 19:00:00 - 03.07.2020 19:00:00 (CEST)Aguilas, Spain (8432): wind direction: 27.06.2020 19:00:00 - 03.07.2020 19:00:00 (CEST)Aguilas, Spain (8432): reduced air pressure: 27.06.2020 19:00:00 - 03.07.2020 19:00:00 (CEST)Aguilas, Spain (8432): visibility: 27.06.2020 19:00:00 - 03.07.2020 19:00:00 (CEST)Aguilas, Spain (8432): sunshine duration: 27.06.2020 19:00:00 - 03.07.2020 19:00:00 (CEST)Aguilas, Spain (8432): precipitation: 27.06.2020 19:00:00 - 03.07.2020 19:00:00 (CEST)
Date & Time tt [°C] td [°C] ff [km/h] ff [kn] fx [km/h] fx [kn] dd ppp [hPa] vv [km] sd [min] rr [mm]
03.07.2020 19:00:00 28,6 19,3 13 7 21 12 SE 1018,6 20 60 0,0
03.07.2020 18:00:00 28,9 19,8 10 6 22 12 SSE 1016,7 20 60 0,0
03.07.2020 17:00:00 29,4 20,0 10 6 23 12 SSE 1017,3 20 60 0,0
03.07.2020 16:00:00 29,6 19,9 13 7 25 14 S 1017,4 20 60 0,0
03.07.2020 15:00:00 29,3 19,6 13 7 29 16 SSE 1018,7 20 60 0,0
03.07.2020 14:00:00 29,1 19,4 13 7 29 16 SSE 1017,6 20 57 -
03.07.2020 13:00:00 28,7 20,5 16 9 30 16 SE 1017,8 20 59 0,0
03.07.2020 12:00:00 28,4 20,7 16 8 24 13 SE 1017,5 18 59 0,0
03.07.2020 11:00:00 28,1 20,4 10 6 22 12 SSE 1017,6 15 58 0,0
03.07.2020 10:00:00 28,2 20,0 10 5 20 11 SE 1017,2 20 59 0,0
03.07.2020 09:00:00 26,9 19,8 3 2 9 5 E 1017,2 12 60 0,0
03.07.2020 08:00:00 23,9 19,4 3 2 8 5 NNE 1016,5 13 39 -
03.07.2020 07:00:00 22,2 17,8 4 2 7 4 NNE 1015,8 14 0 0,0
03.07.2020 06:00:00 21,9 17,5 1 1 6 4 WNW 1014,7 16 0 0,0
03.07.2020 05:00:00 22,0 17,8 2 1 5 3 W 1014,2 15 0 0,0
03.07.2020 04:00:00 22,4 18,8 4 2 7 4 NE 1014,0 12 0 0,0
03.07.2020 03:00:00 23,2 20,0 3 2 5 3 E 1014,4 9 0 0,0
03.07.2020 02:00:00 23,4 20,0 3 2 9 5 NE 1014,7 12 0 -
03.07.2020 01:00:00 23,8 20,3 6 3 10 5 ESE 1014,6 13 0 0,0
03.07.2020 00:00:00 24,2 20,3 4 2 8 5 E 1014,1 13 0 0,0
02.07.2020 23:00:00 24,7 20,2 3 2 10 5 SE 1013,7 16 0 0,0
02.07.2020 22:00:00 25,3 19,6 5 3 12 6 SSE 1013,0 17 0 0,0
02.07.2020 21:00:00 26,3 19,2 7 4 18 10 SE 1012,4 19 28 0,0
02.07.2020 20:00:00 28,1 18,2 11 6 26 14 SE 1011,0 20 60 -
02.07.2020 19:00:00 30,1 17,5 14 8 29 16 E 1011,8 20 60 0,0
02.07.2020 18:00:00 30,5 17,5 18 10 32 18 ESE 1012,4 20 60 0,0
02.07.2020 17:00:00 30,0 18,5 19 11 34 18 SE 1012,7 20 60 0,0
02.07.2020 16:00:00 29,8 19,5 18 10 33 18 ESE 1013,4 20 60 0,0
02.07.2020 15:00:00 28,8 20,0 18 10 33 18 SE 1013,4 20 60 0,0
02.07.2020 14:00:00 29,3 19,3 24 13 34 18 SE 1014,1 13 60 -
02.07.2020 13:00:00 30,9 17,9 16 9 26 14 SE 1013,5 17 60 0,0
02.07.2020 12:00:00 30,1 17,9 15 8 25 13 SE 1013,2 20 60 0,0
02.07.2020 11:00:00 30,7 20,3 4 2 8 5 S 1012,9 18 60 0,0
02.07.2020 10:00:00 28,3 20,1 4 2 9 5 S 1012,8 12 60 0,0
02.07.2020 09:00:00 25,6 19,0 1 1 5 3 S 1012,8 11 60 0,0
02.07.2020 08:00:00 22,9 18,6 2 1 9 5 N 1012,1 10 19 -
02.07.2020 07:00:00 21,0 16,6 4 2 7 4 NNW 1012,1 12 0 0,0
02.07.2020 06:00:00 21,3 16,9 2 1 6 3 ENE 1011,1 12 0 0,0
02.07.2020 05:00:00 22,0 18,0 2 1 6 3 E 1011,1 11 0 0,0
02.07.2020 04:00:00 22,1 18,5 3 2 11 6 ENE 1011,2 11 0 0,0
02.07.2020 03:00:00 22,5 18,9 4 2 8 4 N 1011,7 8 0 0,0
02.07.2020 02:00:00 22,8 19,3 4 2 9 5 NW 1011,7 9 0 -
02.07.2020 01:00:00 23,2 19,6 4 2 10 5 SE 1012,2 10 0 0,0
02.07.2020 00:00:00 23,4 19,1 3 1 10 5 E 1011,5 12 0 0,0
01.07.2020 23:00:00 23,8 19,1 5 3 11 6 E 1011,6 13 0 0,0
01.07.2020 22:00:00 24,2 19,1 4 2 11 6 ESE 1010,8 14 0 0,0
01.07.2020 21:00:00 25,5 18,9 6 3 14 8 SSE 1010,9 15 32 0,0
01.07.2020 20:00:00 26,6 18,7 8 4 15 8 SE 1010,6 15 60 -
01.07.2020 19:00:00 27,3 19,1 8 4 22 12 SE 1010,9 15 60 0,0
01.07.2020 18:00:00 28,3 18,7 10 5 21 11 S 1011,2 15 60 0,0
01.07.2020 17:00:00 29,3 18,4 10 5 19 10 SSE 1011,7 15 60 0,0
01.07.2020 16:00:00 29,1 18,5 8 4 20 11 SE 1012,1 16 60 0,0
01.07.2020 15:00:00 29,5 18,6 8 5 17 9 SSE 1012,2 20 60 0,0
01.07.2020 14:00:00 28,6 19,5 8 5 21 11 S 1013,0 13 60 -
01.07.2020 13:00:00 28,1 19,1 11 6 19 10 SSE 1012,8 15 60 0,0
01.07.2020 12:00:00 28,4 19,6 9 5 18 10 SSE 1012,9 15 60 0,0
01.07.2020 11:00:00 27,7 19,8 8 4 14 7 SSE 1012,7 16 60 0,0
01.07.2020 10:00:00 27,3 19,9 6 3 14 7 SE 1012,8 12 60 0,0
01.07.2020 09:00:00 25,9 20,0 4 2 8 4 S 1013,0 15 60 0,0
01.07.2020 08:00:00 24,1 19,0 3 2 7 4 E 1012,5 16 39 -
01.07.2020 07:00:00 22,4 18,4 3 1 8 4 N 1012,1 15 0 0,0
01.07.2020 06:00:00 22,6 19,2 4 2 7 4 ENE 1011,7 14 0 0,0
01.07.2020 05:00:00 22,9 18,6 5 3 8 5 ESE 1011,3 16 0 0,0
01.07.2020 04:00:00 23,2 18,9 3 2 6 3 W 1011,4 17 0 0,0
01.07.2020 03:00:00 23,4 18,5 4 2 9 5 NW 1011,8 18 0 0,0
01.07.2020 02:00:00 23,8 18,7 3 2 10 5 WSW 1012,2 18 0 -
01.07.2020 01:00:00 24,1 18,5 5 3 19 10 NW 1012,8 20 0 0,0
01.07.2020 00:00:00 24,3 18,9 6 4 14 7 NNW 1012,8 18 0 0,0
30.06.2020 23:00:00 24,5 19,1 6 4 13 7 W 1013,0 18 0 0,0
30.06.2020 22:00:00 25,1 19,3 6 4 13 7 WSW 1012,4 18 0 0,0
30.06.2020 21:00:00 25,9 19,1 5 3 14 7 SSW 1011,8 18 19 0,0
30.06.2020 20:00:00 27,0 19,3 7 4 18 10 SSW 1011,3 20 60 -
30.06.2020 19:00:00 28,0 19,2 9 5 22 12 SSE 1011,1 20 60 0,0
30.06.2020 18:00:00 28,2 19,4 14 8 28 15 SSE 1011,4 15 60 0,0
30.06.2020 17:00:00 28,4 19,3 14 8 35 19 SSE 1011,8 15 60 0,0
30.06.2020 16:00:00 28,8 19,4 18 10 35 19 SE 1013,0 13 60 0,0
30.06.2020 15:00:00 29,3 19,6 18 10 32 18 SE 1013,3 16 59 0,0
30.06.2020 14:00:00 29,5 19,5 18 10 39 21 SE 1012,4 17 60 -
30.06.2020 13:00:00 29,2 18,6 22 12 35 19 SE 1013,2 19 60 0,0
30.06.2020 12:00:00 31,5 15,9 22 12 34 18 ESE 1013,2 20 60 0,0
30.06.2020 11:00:00 30,4 14,0 5 3 16 8 SSE 1013,7 19 60 0,0
30.06.2020 10:00:00 28,5 13,2 6 4 12 7 SSW 1013,6 19 60 0,0
30.06.2020 09:00:00 27,6 12,0 3 2 8 4 SSW 1013,4 20 60 0,0
30.06.2020 08:00:00 23,8 10,4 4 2 10 5 N 1013,3 20 24 -
30.06.2020 07:00:00 21,5 12,3 3 1 9 5 ENE 1012,5 19 0 0,0
30.06.2020 06:00:00 22,0 13,1 6 3 8 5 NNW 1012,4 20 0 0,0
30.06.2020 05:00:00 21,9 13,6 3 1 8 5 N 1012,6 20 0 0,0
30.06.2020 04:00:00 22,6 15,0 1 1 8 4 SE 1012,6 20 0 0,0
30.06.2020 03:00:00 22,8 18,2 3 2 8 4 ESE 1013,1 19 0 0,0
30.06.2020 02:00:00 22,8 16,6 1 1 9 5 NNW 1014,0 20 0 -
30.06.2020 01:00:00 23,4 18,7 5 3 6 3 NW 1015,1 18 0 0,0
30.06.2020 00:00:00 23,7 19,2 3 2 7 4 W 1015,4 19 0 0,0
29.06.2020 23:00:00 24,3 19,6 4 2 10 5 W 1015,5 18 0 0,0
29.06.2020 22:00:00 25,0 18,9 4 2 13 7 SSE 1014,6 19 0 0,0
29.06.2020 21:00:00 26,4 17,8 6 3 13 7 SSE 1014,1 20 31 0,0
29.06.2020 20:00:00 28,0 16,9 8 4 15 8 SSE 1014,0 20 60 -
29.06.2020 19:00:00 28,1 18,8 9 5 16 9 SSE 1013,3 20 60 0,0
29.06.2020 18:00:00 28,6 18,7 9 5 16 9 S 1013,8 20 60 0,0
29.06.2020 17:00:00 28,6 19,3 9 5 21 11 SSE 1014,0 16 60 0,0
29.06.2020 16:00:00 28,5 19,4 12 6 23 12 SSE 1015,3 20 60 0,0
29.06.2020 15:00:00 28,6 18,7 15 8 25 13 SE 1016,5 20 60 0,0
29.06.2020 14:00:00 28,7 17,9 13 7 23 12 SE 1015,9 14 60 -
29.06.2020 13:00:00 29,3 16,5 13 7 24 13 SE 1017,0 20 60 0,0
29.06.2020 12:00:00 28,7 15,6 9 5 17 9 SSE 1017,4 20 60 0,0
29.06.2020 11:00:00 26,6 18,7 7 4 17 9 S 1017,2 17 60 0,0
29.06.2020 10:00:00 25,9 18,8 8 4 13 7 SSE 1017,4 9 60 0,0
29.06.2020 09:00:00 25,1 18,3 5 3 10 5 SSE 1016,7 17 60 0,0
29.06.2020 08:00:00 22,4 13,5 4 2 6 4 NW 1016,1 18 44 -
29.06.2020 07:00:00 20,8 14,4 1 1 9 5 WSW 1015,2 20 0 0,0
29.06.2020 06:00:00 21,1 16,3 1 1 9 5 NE 1015,3 19 0 0,0
29.06.2020 05:00:00 21,5 16,5 3 2 11 6 SE 1015,6 20 0 0,0
29.06.2020 04:00:00 21,1 14,5 2 1 5 3 N 1016,2 20 0 0,0
29.06.2020 03:00:00 22,1 16,1 3 1 5 3 NNE 1016,5 20 0 0,0
29.06.2020 02:00:00 22,0 16,5 3 1 6 3 SSW 1016,8 20 0 -
29.06.2020 01:00:00 23,0 17,7 4 2 6 4 N 1017,3 20 0 0,0
29.06.2020 00:00:00 23,4 17,6 4 2 7 4 NNW 1017,4 20 0 0,0
28.06.2020 23:00:00 23,6 17,4 3 2 8 5 ESE 1016,9 20 0 0,0
28.06.2020 22:00:00 24,2 18,2 3 2 9 5 SE 1016,2 20 0 0,0
28.06.2020 21:00:00 25,4 18,1 5 3 13 7 SSE 1016,1 20 31 0,0
28.06.2020 20:00:00 26,8 17,5 4 2 16 8 S 1016,0 19 60 -
28.06.2020 19:00:00 27,1 18,2 8 5 19 11 SSE 1016,3 20 60 0,0
28.06.2020 18:00:00 28,2 18,3 9 5 21 11 S 1016,7 20 60 0,0
28.06.2020 17:00:00 28,1 17,9 13 7 22 12 SSE 1017,4 20 60 0,0
28.06.2020 16:00:00 28,7 13,8 10 6 24 13 SSE 1017,7 20 60 0,0
28.06.2020 15:00:00 28,6 14,0 10 5 20 11 SSE 1017,5 20 60 0,0
28.06.2020 14:00:00 27,8 17,1 13 7 24 13 SSE 1017,7 20 60 -
28.06.2020 13:00:00 27,1 19,2 12 6 24 13 S 1018,5 17 60 0,0
28.06.2020 12:00:00 27,1 18,2 9 5 20 11 SE 1017,7 17 60 0,0
28.06.2020 11:00:00 26,8 18,4 8 4 17 9 SSE 1017,8 19 60 0,0
28.06.2020 10:00:00 26,2 18,6 5 3 13 7 S 1018,2 17 60 0,0
28.06.2020 09:00:00 25,2 18,4 6 3 10 6 SE 1017,3 18 60 0,0
28.06.2020 08:00:00 22,9 15,4 2 1 8 5 NE 1016,7 20 45 -
28.06.2020 07:00:00 20,3 13,5 3 2 7 4 ESE 1016,2 20 0 0,0
28.06.2020 06:00:00 20,6 13,3 5 3 9 5 N 1015,9 20 0 0,0
28.06.2020 05:00:00 20,9 15,7 3 2 7 4 NE 1015,4 16 0 0,0
28.06.2020 04:00:00 21,3 16,9 4 2 11 6 N 1015,9 18 0 0,0
28.06.2020 03:00:00 21,6 17,2 4 2 9 5 E 1016,0 17 0 0,0
28.06.2020 02:00:00 22,5 17,4 3 2 8 4 NE 1016,3 16 0 -
28.06.2020 01:00:00 - - - - - - - - - - -
28.06.2020 00:00:00 - - - - - - - - - - -
27.06.2020 23:00:00 - - - - - - - - - - -
27.06.2020 22:00:00 - - - - - - - - - - -
27.06.2020 21:00:00 - - - - - - - - - - -
27.06.2020 20:00:00 - - - - - - - - - - -
27.06.2020 19:00:00 - - - - - - - - - - -

tt = temperature
td = dewpoint
ff = wind speed
fx = gusts
dd = wind direction
ppp = reduced air pressure
vv = visibility
sd = sunshine duration
rr = precipitation

Next stations